Meath Environmental Platform

Observations for Trim Patrick St

Time AQI Temp °C Hum % Pres Pa CO μg/m³ H₂S μg/m³ NO μg/m³ NO₂ μg/m³ O₃ μg/m³ SO₂ μg/m³ PM1 μg/m³ PM2.5 μg/m³ PM10 μg/m³
Thursday 27 August 2026
23:42 3 17.5 86 38,460 0.09 0.49 1.19 11.89 37.65 0 14.86 19.91 21.9
23:41 3 17.5 86 38,460 0.09 0.54 1.19 12 42.39 0 12.29 17.85 19.63
23:40 3 17.5 86 38,460 0.09 0.54 1.2 11.46 39.46 0 13.14 20.59 22.65
23:39 3 17.5 86 38,460 0.09 0 1.16 11.67 38.69 0 15.71 22.65 24.92
23:38 3 17.5 86 38,460 0.14 0.41 1.19 11.57 39.24 0.51 14 19.22 21.14
23:37 3 17.5 86 38,460 0.1 0 1.09 11.58 40.26 0 13.14 20.58 22.64
23:36 3 17.6 86 38,460 0.09 0 1.09 11.39 39.62 0 13.14 21.96 24.15
23:34 3 17.6 86 38,460 0.08 0.44 1.02 11.92 39.04 0 14 20.58 22.64
23:32 3 17.6 86 38,460 0.09 0.41 1.37 12.32 41.04 0 13.14 18.52 20.38
23:31 3 17.6 86 38,460 0.1 0.25 1.32 11.5 39.75 0 14.86 21.27 23.4
23:30 3 17.6 86 38,460 0.1 0.8 1.53 10.84 42.64 0 15.71 22.64 24.91
23:29 3 17.6 86 38,460 0.09 1.38 1.58 13.85 35.2 0 14 21.27 23.4
23:27 3 17.6 87 38,460 0.09 0.41 1.27 12.24 39.78 0 14.86 21.94 24.14
23:26 3 17.6 87 38,460 0.11 0.28 1.19 11.51 39.9 0 16.57 22.63 24.89
23:23 3 17.7 87 38,460 0.1 0.67 1.17 11.85 41.43 0 15.71 22.63 24.89
23:22 3 17.6 87 38,460 0.11 0.72 1.23 12.03 39.69 0 13.14 21.94 24.14
23:21 3 17.7 87 38,460 0.1 0.91 1.12 12.25 37.66 0 15.71 23.99 26.39
23:20 3 17.7 87 38,460 0.1 0.15 1 11.55 42.71 0 17.43 24.68 27.14
23:19 3 17.7 87 38,460 0.1 0.38 0.95 11.76 40.2 0 14.86 23.99 26.39
23:18 3 17.7 87 38,460 0.11 1.48 0.92 12.33 39.58 0 16.57 26.05 28.65